When you browse on this site, cookies collect data to enhance your experience and personalize the content and advertising you see.
Visit our Privacy Policy to learn more. By continuing to use the site, you agree to this use of cookies and data.
  • In United Kingdom
  • List of Countries
  • For 7 days
  • Water Temperature
  • Weather Map
  • Weather Widgets
  • user-avatar
    Login

    Hourly Weather Bystrzyca Gorna

    Today, 18 November, Monday

    Time Temperature Precipitation Wind Pressure Humidity
    00:00 +10°C° 0 mm 4 mps 728 mmHg 77%
    01:00 +10°C° 0 mm 4 mps 728 mmHg 76%
    02:00 +10°C° 0 mm 4 mps 727 mmHg 77%
    03:00 +10°C° 0 mm 4 mps 727 mmHg 78%
    04:00 +10°C° 0 mm 4 mps 727 mmHg 80%
    05:00 +10°C° 0 mm 3 mps 727 mmHg 81%
    06:00 +9°C° 0 mm 3 mps 727 mmHg 82%
    07:00 +9°C° 0 mm 3 mps 727 mmHg 83%
    08:00 +10°C° 0 mm 3 mps 727 mmHg 82%
    09:00 +10°C° 0 mm 3 mps 727 mmHg 81%
    10:00 +11°C° 0 mm 4 mps 727 mmHg 80%
    11:00 +11°C° 0 mm 4 mps 728 mmHg 80%
    12:00 +12°C° 0 mm 4 mps 728 mmHg 79%
    13:00 +12°C° 0 mm 4 mps 728 mmHg 79%
    14:00 +11°C° 0.7 mm 4 mps 728 mmHg 81%
    15:00 +10°C° 0.7 mm 4 mps 728 mmHg 83%
    16:00 +8°C° 0.7 mm 5 mps 728 mmHg 85%
    17:00 +7°C° 0.1 mm 4 mps 729 mmHg 85%
    18:00 +7°C° 0.1 mm 4 mps 730 mmHg 85%
    19:00 +6°C° 0.1 mm 4 mps 730 mmHg 85%
    20:00 +5°C° 0 mm 4 mps 731 mmHg 83%
    21:00 +5°C° 0 mm 4 mps 732 mmHg 82%
    22:00 +4°C° 0 mm 4 mps 732 mmHg 80%
    23:00 +4°C° 0 mm 4 mps 733 mmHg 82%

    Tomorrow, 19 November, Tuesday

    Time Temperature Precipitation Wind Pressure Humidity
    00:00 +4°C° 0 mm 3 mps 733 mmHg 85%
    01:00 +3°C° 0 mm 3 mps 734 mmHg 87%
    02:00 +3°C° 0 mm 3 mps 733 mmHg 87%
    03:00 +4°C° 0 mm 2 mps 733 mmHg 88%
    04:00 +4°C° 0 mm 2 mps 733 mmHg 88%
    05:00 +4°C° 0 mm 2 mps 734 mmHg 88%
    06:00 +4°C° 0 mm 2 mps 734 mmHg 89%
    07:00 +4°C° 0 mm 2 mps 734 mmHg 90%
    08:00 +4°C° 0 mm 3 mps 734 mmHg 86%
    09:00 +7°C° 0 mm 3 mps 734 mmHg 83%
    10:00 +7°C° 0 mm 4 mps 734 mmHg 80%
    11:00 +8°C° 0 mm 4 mps 734 mmHg 76%
    12:00 +10°C° 0 mm 4 mps 734 mmHg 72%
    13:00 +11°C° 0 mm 3 mps 734 mmHg 68%
    14:00 +10°C° 0 mm 3 mps 734 mmHg 72%
    15:00 +9°C° 0 mm 2 mps 733 mmHg 77%
    16:00 +8°C° 0 mm 2 mps 733 mmHg 82%
    17:00 +7°C° 0 mm 2 mps 733 mmHg 82%
    18:00 +7°C° 0 mm 2 mps 734 mmHg 83%
    19:00 +7°C° 0 mm 2 mps 734 mmHg 84%
    20:00 +7°C° 0 mm 2 mps 734 mmHg 84%
    21:00 +7°C° 0 mm 2 mps 735 mmHg 84%
    22:00 +7°C° 0 mm 2 mps 735 mmHg 85%
    23:00 +7°C° 0 mm 2 mps 735 mmHg 85%

    Day after tomorrow, 20 November, Wednesday

    Time Temperature Precipitation Wind Pressure Humidity
    00:00 +8°C° 0 mm 1 mps 735 mmHg 86%
    01:00 +7°C° 0 mm 1 mps 736 mmHg 87%
    02:00 +7°C° 0 mm 1 mps 736 mmHg 86%
    03:00 +7°C° 0 mm 1 mps 736 mmHg 85%
    04:00 +6°C° 0 mm 2 mps 736 mmHg 84%
    05:00 +6°C° 0 mm 1 mps 736 mmHg 84%
    06:00 +6°C° 0 mm 1 mps 736 mmHg 85%
    07:00 +6°C° 0 mm 1 mps 736 mmHg 85%
    08:00 +6°C° 0 mm 1 mps 736 mmHg 85%
    09:00 +6°C° 0 mm 1 mps 737 mmHg 85%
    10:00 +6°C° 0 mm 1 mps 737 mmHg 85%
    11:00 +6°C° 0 mm 1 mps 737 mmHg 84%
    12:00 +7°C° 0 mm 1 mps 737 mmHg 83%
    13:00 +7°C° 0 mm 1 mps 737 mmHg 82%
    14:00 +7°C° 0 mm 1 mps 736 mmHg 84%
    15:00 +7°C° 0 mm 1 mps 736 mmHg 86%
    16:00 +7°C° 0 mm 1 mps 736 mmHg 87%
    17:00 +6°C° 0 mm 1 mps 736 mmHg 89%
    18:00 +6°C° 0 mm 1 mps 736 mmHg 90%
    19:00 +6°C° 0 mm 1 mps 736 mmHg 91%
    20:00 +6°C° 0 mm 1 mps 735 mmHg 92%
    21:00 +6°C° 0 mm 1 mps 735 mmHg 94%
    22:00 +6°C° 0 mm 1 mps 735 mmHg 95%
    23:00 +6°C° 0 mm 1 mps 735 mmHg 96%

    21 November, Thursday

    Time Temperature Precipitation Wind Pressure Humidity
    00:00 +5°C° 0 mm 1 mps 734 mmHg 96%
    01:00 +5°C° 0 mm 1 mps 734 mmHg 97%
    02:00 +5°C° 0 mm 1 mps 734 mmHg 97%
    03:00 +5°C° 0 mm 1 mps 733 mmHg 97%
    04:00 +6°C° 0 mm 1 mps 733 mmHg 96%
    05:00 +6°C° 0 mm 1 mps 733 mmHg 96%
    06:00 +6°C° 0 mm 1 mps 733 mmHg 96%
    07:00 +6°C° 0 mm 1 mps 733 mmHg 96%
    08:00 +7°C° 0 mm 1 mps 732 mmHg 95%
    09:00 +8°C° 0 mm 1 mps 732 mmHg 94%
    10:00 +8°C° 0 mm 1 mps 732 mmHg 94%
    11:00 +9°C° 0 mm 1 mps 732 mmHg 92%
    12:00 +9°C° 0 mm 1 mps 732 mmHg 90%
    13:00 +9°C° 0 mm 2 mps 732 mmHg 88%
    14:00 +9°C° 0 mm 1 mps 731 mmHg 89%
    15:00 +9°C° 0 mm 1 mps 731 mmHg 91%
    16:00 +9°C° 0 mm 1 mps 731 mmHg 92%
    17:00 +8°C° 0 mm 1 mps 731 mmHg 92%
    18:00 +8°C° 0 mm 1 mps 731 mmHg 93%
    19:00 +8°C° 0 mm 1 mps 731 mmHg 93%
    20:00 +8°C° 0 mm 1 mps 731 mmHg 92%
    21:00 +8°C° 0 mm 1 mps 731 mmHg 91%
    22:00 +8°C° 0 mm 1 mps 732 mmHg 91%
    23:00 +8°C° 0 mm 1 mps 732 mmHg 91%

    22 November, Friday

    Time Temperature Precipitation Wind Pressure Humidity
    00:00 +8°C° 0 mm 1 mps 732 mmHg 92%
    01:00 +8°C° 0 mm 1 mps 731 mmHg 92%
    02:00 +8°C° 0 mm 1 mps 731 mmHg 92%
    03:00 +8°C° 0 mm 1 mps 732 mmHg 92%
    04:00 +8°C° 0 mm 1 mps 732 mmHg 92%
    05:00 +8°C° 0 mm 1 mps 732 mmHg 92%
    06:00 +8°C° 0 mm 1 mps 732 mmHg 92%
    07:00 +8°C° 0 mm 1 mps 732 mmHg 91%
    08:00 +9°C° 0 mm 1 mps 732 mmHg 89%
    09:00 +8°C° 0 mm 2 mps 732 mmHg 86%
    10:00 +9°C° 0 mm 2 mps 733 mmHg 83%
    11:00 +9°C° 0.1 mm 2 mps 732 mmHg 81%
    12:00 +10°C° 0.1 mm 2 mps 732 mmHg 79%
    13:00 +10°C° 0.1 mm 2 mps 732 mmHg 77%
    14:00 +9°C° 0 mm 2 mps 732 mmHg 80%
    15:00 +8°C° 0 mm 2 mps 732 mmHg 83%
    16:00 +9°C° 0 mm 1 mps 732 mmHg 86%
    17:00 +8°C° 0 mm 1 mps 732 mmHg 87%
    18:00 +8°C° 0 mm 1 mps 732 mmHg 88%
    19:00 +7°C° 0 mm 1 mps 732 mmHg 89%
    20:00 +7°C° 0 mm 1 mps 732 mmHg 89%
    21:00 +7°C° 0 mm 1 mps 732 mmHg 90%
    22:00 +6°C° 0 mm 2 mps 732 mmHg 91%
    23:00 +7°C° 0 mm 1 mps 732 mmHg 91%

    23 November, Saturday

    Time Temperature Precipitation Wind Pressure Humidity
    00:00 +7°C° 0 mm 1 mps 732 mmHg 91%
    01:00 +7°C° 0 mm 1 mps 732 mmHg 92%
    02:00 +7°C° 0 mm 1 mps 732 mmHg 91%
    03:00 +7°C° 0 mm 2 mps 732 mmHg 91%
    04:00 +7°C° 0 mm 2 mps 732 mmHg 91%
    05:00 +7°C° 0 mm 2 mps 732 mmHg 90%
    06:00 +7°C° 0 mm 2 mps 732 mmHg 90%
    07:00 +7°C° 0 mm 2 mps 732 mmHg 89%
    08:00 +8°C° 0 mm 2 mps 732 mmHg 87%
    09:00 +8°C° 0 mm 2 mps 732 mmHg 86%
    10:00 +8°C° 0 mm 2 mps 733 mmHg 84%
    11:00 +9°C° 0 mm 3 mps 733 mmHg 82%
    12:00 +9°C° 0 mm 3 mps 732 mmHg 79%
    13:00 +10°C° 0 mm 3 mps 732 mmHg 77%
    14:00 +10°C° 0 mm 2 mps 732 mmHg 78%
    15:00 +9°C° 0 mm 2 mps 733 mmHg 79%
    16:00 +9°C° 0 mm 2 mps 733 mmHg 80%
    17:00 +9°C° 0 mm 2 mps 733 mmHg 81%
    18:00 +9°C° 0 mm 2 mps 733 mmHg 81%
    19:00 +9°C° 0 mm 2 mps 733 mmHg 81%
    20:00 +9°C° 0 mm 2 mps 733 mmHg 82%
    21:00 +8°C° 0 mm 2 mps 734 mmHg 82%
    22:00 +8°C° 0 mm 2 mps 734 mmHg 83%
    23:00 +8°C° 0 mm 2 mps 734 mmHg 83%
    Show more